When you browse on this site, cookies collect data to enhance your experience and personalize the content and advertising you see.
Visit our Privacy Policy to learn more. By continuing to use the site, you agree to this use of cookies and data.
  • Em Portugal
  • Lista de países
  • Para 7 dias
  • Temperatura da água
  • Mapas de satélite
  • Mapa do tempo
  • Widgets de tempo
  • user-avatar
    Iniciar Sessão

    Previsão horária em Podgorna

    Hoje, 20 Março, Quarta-feira

    Tempo Temperatura Precipitação Vento Pressão Humidade
    00:00 -1°C° 0 mm 2 m/s 737 mmHg 80%
    01:00 -1°C° 0 mm 2 m/s 738 mmHg 81%
    02:00 -1°C° 0 mm 2 m/s 738 mmHg 82%
    03:00 +1°C° 0 mm 1 m/s 738 mmHg 83%
    04:00 +1°C° 0 mm 1 m/s 738 mmHg 84%
    05:00 +1°C° 0 mm 1 m/s 739 mmHg 82%
    06:00 +2°C° 0 mm 1 m/s 739 mmHg 81%
    07:00 +2°C° 0 mm 1 m/s 739 mmHg 77%
    08:00 +3°C° 0 mm 2 m/s 740 mmHg 68%
    09:00 +4°C° 0 mm 2 m/s 740 mmHg 60%
    10:00 +6°C° 0 mm 2 m/s 740 mmHg 52%
    11:00 +7°C° 0 mm 2 m/s 740 mmHg 48%
    12:00 +8°C° 0 mm 2 m/s 740 mmHg 45%
    13:00 +8°C° 0 mm 2 m/s 740 mmHg 42%
    14:00 +8°C° 0 mm 2 m/s 740 mmHg 42%
    15:00 +8°C° 0 mm 2 m/s 740 mmHg 43%
    16:00 +9°C° 0 mm 2 m/s 740 mmHg 43%
    17:00 +7°C° 0 mm 2 m/s 740 mmHg 50%
    18:00 +7°C° 0 mm 1 m/s 740 mmHg 57%
    19:00 +5°C° 0 mm 1 m/s 740 mmHg 64%
    20:00 +5°C° 0 mm 1 m/s 740 mmHg 65%
    21:00 +4°C° 0 mm 1 m/s 740 mmHg 67%
    22:00 +4°C° 0 mm 1 m/s 740 mmHg 68%
    23:00 +3°C° 0 mm 2 m/s 740 mmHg 67%

    Amanhã, 21 Março, Quinta-feira

    Tempo Temperatura Precipitação Vento Pressão Humidade
    00:00 +3°C° 0 mm 2 m/s 741 mmHg 67%
    01:00 +3°C° 0 mm 2 m/s 741 mmHg 66%
    02:00 +3°C° 0 mm 2 m/s 741 mmHg 67%
    03:00 +3°C° 0 mm 2 m/s 740 mmHg 68%
    04:00 +3°C° 0 mm 2 m/s 740 mmHg 70%
    05:00 +3°C° 0 mm 2 m/s 740 mmHg 71%
    06:00 +3°C° 0 mm 2 m/s 741 mmHg 72%
    07:00 +4°C° 0 mm 2 m/s 741 mmHg 73%
    08:00 +6°C° 0 mm 2 m/s 741 mmHg 69%
    09:00 +8°C° 0 mm 2 m/s 741 mmHg 66%
    10:00 +10°C° 0 mm 2 m/s 742 mmHg 63%
    11:00 +12°C° 0 mm 2 m/s 741 mmHg 62%
    12:00 +12°C° 0 mm 2 m/s 741 mmHg 60%
    13:00 +13°C° 0 mm 2 m/s 741 mmHg 59%
    14:00 +13°C° 0 mm 2 m/s 741 mmHg 59%
    15:00 +14°C° 0 mm 2 m/s 740 mmHg 60%
    16:00 +14°C° 0 mm 2 m/s 740 mmHg 60%
    17:00 +12°C° 0 mm 1 m/s 740 mmHg 67%
    18:00 +11°C° 0 mm 1 m/s 740 mmHg 74%
    19:00 +9°C° 0 mm 1 m/s 740 mmHg 80%
    20:00 +9°C° 0 mm 1 m/s 740 mmHg 83%
    21:00 +8°C° 0 mm 1 m/s 740 mmHg 85%
    22:00 +8°C° 0 mm 1 m/s 740 mmHg 87%
    23:00 +8°C° 0 mm 1 m/s 740 mmHg 87%

    Depois de amanhã, 22 Março, Sexta-feira

    Tempo Temperatura Precipitação Vento Pressão Humidade
    00:00 +7°C° 0 mm 1 m/s 740 mmHg 88%
    01:00 +7°C° 0 mm 1 m/s 740 mmHg 88%
    02:00 +7°C° 0 mm 1 m/s 740 mmHg 88%
    03:00 +7°C° 0 mm 1 m/s 739 mmHg 88%
    04:00 +7°C° 0 mm 1 m/s 739 mmHg 88%
    05:00 +7°C° 0 mm 1 m/s 739 mmHg 87%
    06:00 +7°C° 0 mm 1 m/s 739 mmHg 86%
    07:00 +8°C° 0 mm 1 m/s 740 mmHg 86%
    08:00 +10°C° 0 mm 1 m/s 740 mmHg 78%
    09:00 +11°C° 0 mm 0 m/s 740 mmHg 71%
    10:00 +13°C° 0 mm 0 m/s 740 mmHg 63%
    11:00 +14°C° 0 mm 0 m/s 740 mmHg 60%
    12:00 +15°C° 0 mm 0 m/s 740 mmHg 57%
    13:00 +16°C° 0 mm 0 m/s 739 mmHg 53%
    14:00 +16°C° 0 mm 0 m/s 739 mmHg 53%
    15:00 +18°C° 0 mm 1 m/s 738 mmHg 53%
    16:00 +18°C° 0 mm 1 m/s 738 mmHg 52%
    17:00 +15°C° 0 mm 1 m/s 738 mmHg 59%
    18:00 +14°C° 0 mm 1 m/s 738 mmHg 65%
    19:00 +12°C° 0 mm 1 m/s 737 mmHg 71%
    20:00 +12°C° 0 mm 1 m/s 737 mmHg 72%
    21:00 +10°C° 0 mm 2 m/s 737 mmHg 73%
    22:00 +10°C° 0 mm 2 m/s 737 mmHg 74%
    23:00 +10°C° 0 mm 2 m/s 737 mmHg 74%

    23 Março, Sábado

    Tempo Temperatura Precipitação Vento Pressão Humidade
    00:00 +9°C° 0 mm 2 m/s 737 mmHg 75%
    01:00 +9°C° 0 mm 2 m/s 737 mmHg 75%
    02:00 +9°C° 0 mm 2 m/s 737 mmHg 75%
    03:00 +8°C° 0 mm 3 m/s 736 mmHg 75%
    04:00 +8°C° 0 mm 3 m/s 736 mmHg 76%
    05:00 +8°C° 0 mm 3 m/s 736 mmHg 75%
    06:00 +8°C° 0 mm 2 m/s 736 mmHg 74%
    07:00 +9°C° 0 mm 2 m/s 736 mmHg 73%
    08:00 +12°C° 0 mm 2 m/s 737 mmHg 66%
    09:00 +14°C° 0 mm 2 m/s 737 mmHg 58%
    10:00 +16°C° 0 mm 2 m/s 737 mmHg 51%
    11:00 +16°C° 0 mm 3 m/s 737 mmHg 50%
    12:00 +17°C° 0 mm 3 m/s 737 mmHg 48%
    13:00 +18°C° 0 mm 3 m/s 737 mmHg 47%
    14:00 +17°C° 0 mm 3 m/s 736 mmHg 49%
    15:00 +17°C° 0 mm 3 m/s 736 mmHg 51%
    16:00 +17°C° 0 mm 3 m/s 736 mmHg 53%
    17:00 +14°C° 0 mm 3 m/s 736 mmHg 61%
    18:00 +12°C° 0 mm 3 m/s 736 mmHg 70%
    19:00 +11°C° 0 mm 3 m/s 736 mmHg 79%
    20:00 +10°C° 0 mm 3 m/s 737 mmHg 82%
    21:00 +10°C° 0 mm 2 m/s 737 mmHg 86%
    22:00 +9°C° 0 mm 2 m/s 737 mmHg 90%
    23:00 +8°C° 0 mm 3 m/s 737 mmHg 86%

    24 Março, Domingo

    Tempo Temperatura Precipitação Vento Pressão Humidade
    00:00 +8°C° 0 mm 3 m/s 737 mmHg 81%
    01:00 +7°C° 0 mm 3 m/s 737 mmHg 77%
    02:00 +5°C° 0 mm 3 m/s 737 mmHg 73%
    03:00 +5°C° 0 mm 2 m/s 737 mmHg 70%
    04:00 +4°C° 0 mm 2 m/s 737 mmHg 66%
    05:00 +4°C° 0 mm 2 m/s 737 mmHg 65%
    06:00 +4°C° 0 mm 2 m/s 737 mmHg 65%
    07:00 +4°C° 0 mm 2 m/s 737 mmHg 64%
    08:00 +5°C° 0 mm 2 m/s 737 mmHg 61%
    09:00 +6°C° 0 mm 2 m/s 737 mmHg 59%
    10:00 +7°C° 0 mm 2 m/s 737 mmHg 56%
    11:00 +9°C° 0 mm 2 m/s 736 mmHg 55%
    12:00 +10°C° 0 mm 2 m/s 736 mmHg 53%
    13:00 +12°C° 0 mm 2 m/s 735 mmHg 52%
    14:00 +12°C° 0 mm 2 m/s 734 mmHg 54%
    15:00 +12°C° 0 mm 2 m/s 734 mmHg 55%
    16:00 +12°C° 0 mm 2 m/s 733 mmHg 57%
    17:00 +9°C° 0 mm 2 m/s 733 mmHg 61%
    18:00 +9°C° 0 mm 1 m/s 733 mmHg 65%
    19:00 +8°C° 0 mm 1 m/s 733 mmHg 69%
    20:00 +7°C° 0 mm 1 m/s 732 mmHg 71%
    21:00 +6°C° 0 mm 0 m/s 732 mmHg 74%
    22:00 +5°C° 0 mm 0 m/s 732 mmHg 76%
    23:00 +6°C° 0 mm 1 m/s 732 mmHg 77%

    25 Março, Segunda-feira

    Tempo Temperatura Precipitação Vento Pressão Humidade
    00:00 +6°C° 0 mm 1 m/s 731 mmHg 78%
    01:00 +5°C° 0 mm 2 m/s 731 mmHg 79%
    02:00 +4°C° 0 mm 2 m/s 730 mmHg 77%
    03:00 +4°C° 0 mm 2 m/s 730 mmHg 75%
    04:00 +4°C° 0 mm 2 m/s 730 mmHg 73%
    05:00 +3°C° 0 mm 3 m/s 730 mmHg 75%
    06:00 +4°C° 0 mm 4 m/s 730 mmHg 77%
    07:00 +4°C° 0 mm 4 m/s 730 mmHg 79%
    08:00 +5°C° 0 mm 5 m/s 729 mmHg 71%
    09:00 +4°C° 0 mm 6 m/s 729 mmHg 63%
    10:00 +5°C° 0 mm 7 m/s 729 mmHg 55%
    11:00 +5°C° 0 mm 7 m/s 729 mmHg 57%
    12:00 +5°C° 0 mm 7 m/s 728 mmHg 58%
    13:00 +5°C° 0 mm 8 m/s 727 mmHg 60%
    14:00 +5°C° 0.2 mm 8 m/s 727 mmHg 63%
    15:00 +3°C° 0.2 mm 9 m/s 727 mmHg 65%
    16:00 +2°C° 0.2 mm 9 m/s 727 mmHg 68%
    17:00 +1°C° 0.1 mm 8 m/s 727 mmHg 67%
    18:00 +2°C° 0.1 mm 7 m/s 727 mmHg 67%
    19:00 0°C° 0.1 mm 7 m/s 727 mmHg 66%
    20:00 -1°C° 0 mm 7 m/s 727 mmHg 67%
    21:00 -1°C° 0 mm 7 m/s 727 mmHg 69%
    22:00 -2°C° 0 mm 7 m/s 727 mmHg 70%
    23:00 -2°C° 0.1 mm 8 m/s 726 mmHg 70%
    Mostrar mais